STARLINK-35870, 66572

Orbit data source: Space-Track

STARLINK-35870, 66572 is a payload satellite owned by SpaceX/Seattle (US) in LEO that was launched on Fri, 21 Nov 2025 UTC via an FALCON 9 launch vehicle from the Air Force Eastern Test Range (AFETR). Payload-class satellites include a variety of spacecraft equipped with specific instruments for various scientific and technological missions. These include communications satellites like Starlink; space stations such as the ISS; scientific satellites like the Hubble; Earth observation satellites from companies like Planet Labs, Umbra, and HawkEye 360; GPS; miniature CubeSats for education and research; and military/defense satellites.

Loading next visibility...
Identifier
66572, 2025-268R
Orbit
LEO
Country
Flag of USUS
Related business
Manufacturer
SpaceX/Seattle
Mission
Operational Commercial Communications
Bus & Motor
STARLINK V2MO, Unknown motor
Mass
575 kg wet, ~530 kg dry
Launch date (UTC)
2025-11-21 (7 months ago)
Launch vehicle
FALCON 9
Launch site
Air Force Eastern Test Range (AFETR)
Object type
Payload
Rocket body
Debris
Shape & HBR
Box + 2 Pan, 17.7 m
Radar Cross Section
36.964 m², Large (>1 m²)

Expand to show TLE details & history
Last TLE update: 1 day ago

TLE from 1 day ago
0 STARLINK-35870
1 66572U 25268R   26170.61025025  .00005789  00000-0  21967-3 0  9993
2 66572  43.0036 131.7798 0001605 268.7983  91.2685 15.27585962 33541
Epoch: 2026-06-19T14:38Z
TLE epoch observation values (Epoch: 2026-06-19T14:38:45.621Z)
Latitude
-0.00001°
Longitude
4.25294°
Altitude
482.832 km
Speed
7.626 km/s
True Right ascension
08h 47m 07s
True Declination
0° 00' 00"
Sunlit
Object was in daylight at epoch
Visualization orbit readout
Latitude
Unknown
Longitude
Unknown
Altitude
Unknown
Speed
Unknown
Apparent Right ascension
Unknown
Apparent Declination
Unknown
Sunlit
N/A
Visualization observer readout
Local Sidereal Time
07:18:07
Azimuth
Unknown
Elevation
Unknown
Doppler factor
Unknown
Orbital elements
Apogee altitude
486.077 km
Perigee altitude
483.874 km
Semi-major axis
6,863.113 km
Eccentricity
0.00016
Inclination
43.0036°
RAAN
131.7798°
Arg. of periapsis
268.7983°
True anomaly
91.28689°
Mean anomaly
91.2685°
Eccentric anomaly
91.27769°
Mean motion
3.81735 °/min
Orbital period
94.31 mins
BSTAR
0.00021967
Loading maneuver chart data...
Computing Atmospheric mass density...
Loading historical data...
Loading historical data...
Loading historical data...
Loading historical data...
Loading historical data...
Loading historical data...
Loading historical data...

Documentation

Showing up to 5 results
|